User: anonymous   Login
Location: Unspecified
(0.0000°N, 0.0000°E)
Time: 18:00:15
(UTC+00:00)
Language:

Gonets-D1 - Orbit

View from above orbital plane
View from above orbital plane
View from above satellite
View from above satellite

Ground track
Ground track

The orbit data is extracted from the following two-line orbital elements,

1 24727U 97006C   19017.48493207  .00000025  00000-0  80723-4 0  9990
2 24727  82.6042 177.1196 0001308 101.8489 312.4913 12.62322151 10235
Epoch (UTC): 17 January 2019 11:38:18
Eccentricity: 0.0001308
inclination: 82.6042°
perigee height: 1412 km
apogee height: 1414 km
right ascension of ascending node: 177.1196°
argument of perigee: 101.8489°
revolutions per day: 12.62322151
mean anomaly at epoch: 312.4913°
orbit number at epoch: 1023

The dashed part of the orbit path shows where the satellite is in the earth's shadow,  

DLR